Location: Huberhof
(49.2050°N, 7.4980°E)
Time: 05:26:13
(UTC+00:00)

Cosmos 44 - Pass Details

Date: 29 October 2020
Orbit: 578 x 784 km, 65.1° (Epoch: 25 November)

Event Time Altitude Azimuth Distance (km) Brightness Sun altitude
Rises 17:21:26 0° 227° (SW) 2,876 7.5 -11.6°
Reaches altitude 10° 17:23:39 10° 230° (SW) 2,001 6.6 -12.0°
Maximum altitude 17:28:09 64° 312° (NW) 726 3.6 -12.7°
Drops below altitude 10° 17:32:59 10° 35° (NE) 2,144 5.4 -13.5°
Enters shadow 17:33:23 - 36° (NE) 2,304 5.6 -13.6°
